User: anonymous   Login
Location: Lima
(44.6384°N, 112.5920°W)
Time: 00:39:46
(UTC+00:00)
Language:

Max Valier Satellite - Orbit

View from above orbital plane
View from above orbital plane
View from above satellite
View from above satellite

Ground track
Ground track

The orbit data is extracted from the following two-line orbital elements,

1 42778U 17036P   24114.63798631  .00168019  00000-0  14114-2 0  9998
2 42778  97.1063 151.4079 0004572  82.7566 277.4217 15.69371812380975
Epoch (UTC): 23 April 2024 15:18:42
Eccentricity: 0.0004572
inclination: 97.1063°
perigee height: 357 km
apogee height: 364 km
right ascension of ascending node: 151.4079°
argument of perigee: 82.7566°
revolutions per day: 15.69371812
mean anomaly at epoch: 277.4217°
orbit number at epoch: 38097

The dashed part of the orbit path shows where the satellite is in the earth's shadow,  

DLR